Norway House Airport
CYNE : now visible

Airfield :











YOU CAN JOIN US ON...

 
LOGIN :

Register | Disclaimer

   EN    FR    IT 

 









Legend :    VFR   Marginal VFR   IFR   Intensive IFR   Very Intensive IFR
Visi :
Ceiling :
>= 8 km
>= 3000ft
5 to 8 km
1000 to 3000 ft
1500m to 5 km
500 to 1000 ft
800 to 1500m
200 to 500 ft
< 800m
< 200 ft
Symbols :   Thunderstorms  Fog  Heavy snow  Heavy precipitations  Wind > 20 kt






- Airport Elevation : 734 ft
- IATA code : YNE


CYNE - Norway House

CURRENT METAR :
  • 311800Z AUTO 35008KT 320V030 9SM CLR 22/08 A3022 RMK SLP239 DENSITY ALT 1400FT

EXPIRED METARs :
  • 311700Z AUTO 34009G15KT 310V030 9SM CLR 21/09 A3022 RMK SLP238 DENSITY ALT 1300FT
  • 311600Z AUTO 35008G17KT 290V010 9SM CLR 20/08 A3021 RMK SLP235 DENSITY ALT 1300FT

TAF TAF CYNE
Valid from the 31 at 19:00 until the 01 at 07:00 UTC


311838Z 3119/0107 35008KT P6SM FEW060 RMK FCST BASED ON AUTO OBS. NXT FCST BY 010100Z
CZWG FIR / North America



MET'MAP, your aeronautical weather chart ! - Copyright ORBIFLY December 2007 - Disclaimer

ORBIFLY MET'MAP TEAM :

Programming & Development : Alexandra Zaïnal
Concept & original design : Baudouin d'Aumeries
Assistance for programming : Marc-Olivier Méhu
Technical & hardware support : Manuel Goepfert

Contact : metmap@orbifly.com




SOURCES & CREDITS :

   NOAA       Earth
Advisory